User: anonymous   Login
Location: Unspecified
(0.0000°N, 0.0000°E)
Time: 20:49:34
(UTC+00:00)
Language:

BSAT 3B - Orbit

View from above orbital plane
View from above orbital plane
View from above satellite
View from above satellite

Ground track
Ground track

The orbit is defined by the following mean orbital elements,

1 37207U          26145.60554611 +.00000000 +00000-0 +00000-0 0 00008
2 37207   0.0496 240.2197 0000646 276.4938  54.3117  1.00272473    07
Epoch (UTC): 25 May 2026 14:31:59
Eccentricity: 0.0000646
inclination: 0.0496°
perigee height: 35784 km
apogee height: 35789 km
right ascension of ascending node: 240.2197°
argument of perigee: 276.4938°
revolutions per day: 1.00272473
mean anomaly at epoch: 54.3117°

The dashed part of the orbit path shows where the satellite is in the earth's shadow,  

DLR